EW9485 Weather Reports


Display with metric or nautical units.
time (UTC)temp
F
wind
direction
speed
MPH
gust
MPH
rain 1hr
in
rain 24hr
in
rain mn
in
humidity
%
barometer
mb
20260904013544 79 127 1.0 3.0 0.00 0.00 0.00 84 1014.4
20260904013124 80 127 0.0 3.0 0.00 0.00 0.00 84 1014.4
20260904012545 80 127 1.0 3.0 0.00 0.00 0.00 84 1014.3
20260904012043 80 127 1.0 3.0 0.00 0.00 0.00 84 1014.3
20260904011551 80 127 1.0 3.0 0.00 0.00 0.00 84 1014.3
20260904011049 80 127 1.0 4.0 0.00 0.00 0.00 84 1014.2
20260904010545 80 127 1.0 4.0 0.00 0.00 0.00 84 1014.3
20260904010057 80 127 1.0 4.0 0.00 0.00 0.00 84 1014.2
20260904005543 80 127 1.0 4.0 0.00 0.00 0.00 84 1014.2
20260904005046 80 126 2.0 4.0 0.00 0.00 0.00 84 1014.2
20260904004602 80 125 1.0 5.0 0.00 0.00 0.00 84 1014.2
20260904004043 80 150 1.0 5.0 0.00 0.00 0.00 84 1014.1
20260904003544 81 140 1.0 4.0 0.00 0.00 0.00 84 1014.0
20260904003056 81 125 1.0 2.0 0.00 0.00 0.00 85 1014.0
20260904002545 81 125 0.0 2.0 0.00 0.00 0.00 85 1013.8
20260904002045 81 125 0.0 3.0 0.00 0.00 0.00 84 1013.7
20260904001606 81 0 0.0 4.0 0.00 0.00 0.00 85 1013.8
20260904001046 81 125 1.0 7.0 0.00 0.00 0.00 84 1013.9
20260904000551 81 123 2.0 7.0 0.00 0.00 0.00 84 1013.9
20260904000100 81 125 2.0 7.0 0.00 0.00 0.00 84 1014.0
20260903235550 81 171 1.0 6.0 0.00 0.00 0.00 84 1013.9
20260903235044 81 146 3.0 6.0 0.00 0.00 0.00 84 1013.8
20260903234558 81 132 2.0 6.0 0.00 0.00 0.00 84 1013.6
20260903234045 81 123 2.0 4.0 0.00 0.00 0.00 83 1013.3
20260903233544 82 119 2.0 4.0 0.00 0.00 0.00 83 1013.3
20260903233057 82 104 2.0 4.0 0.00 0.00 0.00 82 1013.1
20260903232548 82 100 2.0 4.0 0.00 0.00 0.00 82 1013.0
20260903232045 82 100 2.0 4.0 0.00 0.00 0.00 81 1013.0
20260903231602 82 108 2.0 9.0 0.00 0.00 0.00 80 1012.8
20260903231049 82 115 2.0 9.0 0.00 0.00 0.00 79 1012.7
20260903230546 83 101 4.0 9.0 0.00 0.00 0.00 79 1012.9
20260903230108 83 63 2.0 9.0 0.00 0.00 0.00 79 1012.9
20260903225545 83 51 4.0 9.0 0.00 0.00 0.00 80 1013.1
20260903225046 84 90 3.0 9.0 0.00 0.00 0.00 82 1013.2
20260903224555 84 105 4.0 9.0 0.00 0.00 0.00 82 1013.2
20260903224043 84 153 1.0 3.0 0.00 0.00 0.00 82 1013.1
20260903223543 84 154 1.0 3.0 0.00 0.00 0.00 83 1013.2
20260903223112 84 154 0.0 2.0 0.00 0.00 0.00 83 1013.2
20260903222545 84 154 0.0 2.0 0.00 0.00 0.00 82 1013.2
20260903222045 84 0 0.0 2.0 0.00 0.00 0.00 82 1013.3
20260903221559 84 0 1.0 2.0 0.00 0.00 0.00 82 1013.3
20260903221044 84 154 1.0 2.0 0.00 0.00 0.00 82 1013.3
20260903220547 84 154 0.0 2.0 0.00 0.00 0.00 82 1013.3
20260903220059 84 154 0.0 2.0 0.00 0.00 0.00 82 1013.2
20260903215545 84 0 0.0 2.0 0.00 0.00 0.00 82 1013.2
20260903215046 84 154 1.0 3.0 0.00 0.00 0.00 82 1013.3
20260903214554 84 154 0.0 3.0 0.00 0.00 0.00 82 1013.3
20260903214059 84 154 1.0 3.0 0.00 0.00 0.00 82 1013.3
20260903213545 84 154 1.0 3.0 0.00 0.00 0.00 82 1013.3
20260903213059 84 154 2.0 3.0 0.00 0.00 0.00 82 1013.3
20260903212545 84 154 1.0 3.0 0.00 0.00 0.00 82 1013.4
20260903212045 84 154 1.0 3.0 0.00 0.00 0.00 82 1013.4
20260903211559 84 154 1.0 3.0 0.00 0.00 0.00 82 1013.5
20260903211044 84 154 1.0 3.0 0.00 0.00 0.00 82 1013.5
20260903210545 84 154 0.0 2.0 0.00 0.00 0.00 82 1013.6
20260903210058 84 0 0.0 2.0 0.00 0.00 0.00 82 1013.5
20260903205545 84 154 0.0 2.0 0.00 0.00 0.00 82 1013.6
20260903205045 84 0 0.0 2.0 0.00 0.00 0.00 81 1013.5
20260903204559 84 0 0.0 2.0 0.00 0.00 0.00 81 1013.6
20260903204044 83 0 0.0 3.0 0.00 0.00 0.00 83 1013.7
20260903203545 83 154 0.0 3.0 0.00 0.00 0.00 83 1013.7
20260903203058 83 154 1.0 3.0 0.00 0.00 0.00 83 1013.7
20260903202544 84 153 1.0 3.0 0.00 0.00 0.00 86 1013.9
20260903202045 83 153 0.0 2.0 0.00 0.00 0.00 84 1014.1
20260903201605 82 153 0.0 2.0 0.00 0.00 0.00 85 1014.0
20260903201050 82 153 1.0 3.0 0.00 0.00 0.00 86 1014.1
20260903200550 82 153 0.0 3.0 0.00 0.00 0.00 85 1014.1
20260903195546 82 155 2.0 9.0 0.00 0.00 0.00 84 1014.2
20260903195046 83 155 2.0 9.0 0.00 0.00 0.00 84 1014.5
20260903194559 82 148 1.0 3.0 0.00 0.00 0.00 85 1014.7
20260903194045 82 0 0.0 3.0 0.00 0.00 0.00 84 1014.5
20260903193544 83 0 0.0 3.0 0.00 0.00 0.00 84 1014.9
20260903193056 83 63 0.0 2.0 0.00 0.00 0.00 83 1014.9
20260903192547 83 63 1.0 2.0 0.00 0.00 0.00 82 1014.8
20260903192044 83 63 0.0 2.0 0.00 0.00 0.00 84 1014.9
20260903191609 83 63 1.0 3.0 0.00 0.00 0.00 81 1014.9
20260903191047 84 63 0.0 3.0 0.00 0.00 0.00 80 1014.9
20260903190545 84 63 1.0 3.0 0.00 0.00 0.00 79 1014.8
20260903190125 84 0 1.0 3.0 0.00 0.00 0.00 79 1014.7
20260903185546 84 63 0.0 4.0 0.00 0.00 0.00 79 1014.7
20260903185046 84 63 2.0 5.0 0.00 0.00 0.00 78 1014.9
20260903184618 84 49 2.0 7.0 0.00 0.00 0.00 77 1014.9
20260903184046 84 23 3.0 7.0 0.00 0.00 0.00 77 1014.8
20260903183618 84 29 2.0 5.0 0.00 0.00 0.00 77 1014.7
20260903183058 84 35 2.0 6.0 0.00 0.00 0.00 77 1015.0
20260903182545 84 39 2.0 6.0 0.00 0.00 0.00 78 1015.1
20260903182045 84 58 2.0 5.0 0.00 0.00 0.00 77 1015.1
20260903181557 84 59 2.0 7.0 0.00 0.00 0.00 77 1015.2
20260903181046 84 57 3.0 7.0 0.00 0.00 0.00 77 1015.3
20260903180543 84 42 2.0 7.0 0.00 0.00 0.00 78 1015.4
20260903180104 84 342 2.0 6.0 0.00 0.00 0.00 79 1015.5
20260903175544 84 34 3.0 6.0 0.00 0.00 0.00 78 1015.6
20260903175043 84 45 1.0 5.0 0.00 0.00 0.00 79 1015.6
20260903174559 84 12 2.0 4.0 0.00 0.00 0.00 80 1015.8
20260903174046 83 44 2.0 5.0 0.00 0.00 0.00 80 1015.9
20260903173546 83 25 2.0 5.0 0.00 0.00 0.00 81 1015.8
20260903173056 83 30 2.0 6.0 0.00 0.00 0.00 81 1015.7
20260903172544 83 43 1.0 6.0 0.00 0.00 0.00 82 1015.9
20260903172044 82 71 3.0 6.0 0.00 0.00 0.00 82 1015.8
20260903171603 82 30 1.0 7.0 0.00 0.00 0.00 82 1016.0
20260903171046 82 55 3.0 7.0 0.00 0.00 0.00 82 1016.1
20260903170543 82 74 3.0 8.0 0.00 0.00 0.00 83 1016.1
20260903170058 81 63 3.0 8.0 0.00 0.00 0.00 83 1016.1
20260903165543 81 53 3.0 8.0 0.00 0.00 0.00 83 1016.1
20260903165045 81 61 3.0 9.0 0.00 0.00 0.00 83 1016.1
20260903164607 81 74 4.0 9.0 0.00 0.00 0.00 83 1016.2
20260903164044 81 70 3.0 7.0 0.00 0.00 0.00 84 1016.3
20260903163544 81 49 3.0 7.0 0.00 0.00 0.00 84 1016.1
20260903163136 81 56 4.0 7.0 0.00 0.00 0.00 84 1016.3
20260903162545 81 48 2.0 4.0 0.00 0.00 0.00 85 1016.4
20260903162042 81 82 2.0 4.0 0.00 0.00 0.00 85 1016.3
20260903161600 80 84 2.0 8.0 0.00 0.00 0.00 85 1016.3
20260903161044 80 82 2.0 9.0 0.00 0.00 0.00 85 1016.4
20260903160544 80 79 2.0 11.0 0.00 0.00 0.00 85 1016.4
20260903160054 80 70 5.0 11.0 0.00 0.00 0.00 85 1016.2
20260903155543 80 36 4.0 11.0 0.00 0.00 0.00 86 1016.2
20260903155047 80 54 3.0 7.0 0.00 0.00 0.00 86 1016.5
20260903154610 80 44 4.0 7.0 0.00 0.00 0.00 86 1016.5
20260903154044 80 56 2.0 6.0 0.00 0.00 0.00 87 1016.5
20260903153543 79 56 4.0 7.0 0.00 0.00 0.00 87 1016.6
20260903153059 79 67 4.0 7.0 0.00 0.00 0.00 87 1016.6
20260903152544 79 62 2.0 7.0 0.00 0.00 0.00 88 1016.5
20260903152049 79 55 4.0 9.0 0.00 0.00 0.00 88 1016.4
20260903151603 79 25 5.0 9.0 0.00 0.00 0.00 88 1016.3
20260903151045 78 70 4.0 9.0 0.00 0.00 0.00 88 1016.3
20260903150546 78 61 3.0 9.0 0.00 0.00 0.00 88 1016.2
20260903150105 78 63 3.0 9.0 0.00 0.00 0.00 88 1016.2
20260903145545 78 74 3.0 9.0 0.00 0.00 0.00 88 1016.2
20260903145049 78 44 5.0 10.0 0.00 0.00 0.00 88 1016.1
20260903144600 78 68 3.0 10.0 0.00 0.00 0.00 88 1016.1
20260903144047 78 15 4.0 10.0 0.00 0.00 0.00 88 1016.1
20260903143542 78 38 5.0 9.0 0.00 0.00 0.00 88 1016.0
20260903143056 78 73 4.0 9.0 0.00 0.00 0.00 88 1016.0
20260903142548 78 45 4.0 8.0 0.00 0.00 0.00 88 1016.0
20260903142047 78 60 4.0 8.0 0.00 0.00 0.00 88 1016.0
20260903141557 78 36 3.0 9.0 0.00 0.00 0.00 88 1016.0
20260903141046 78 60 3.0 9.0 0.00 0.00 0.00 88 1016.0
20260903140546 78 49 3.0 8.0 0.00 0.00 0.00 88 1015.9
20260903140057 78 60 3.0 8.0 0.00 0.00 0.00 88 1015.9
20260903135547 78 49 3.0 8.0 0.00 0.00 0.00 88 1016.0
20260903135045 78 77 3.0 7.0 0.00 0.00 0.00 88 1016.0
20260903134628 78 64 3.0 5.0 0.00 0.00 0.00 87 1016.1
20260903134048 78 72 2.0 9.0 0.00 0.00 0.00 87 1016.0
20260903133547 78 101 4.0 9.0 0.00 0.00 0.00 87 1016.1
20260903133100 78 90 3.0 7.0 0.00 0.00 0.00 87 1016.1
20260903132548 78 77 3.0 8.0 0.00 0.00 0.00 87 1016.1
20260903132046 78 65 3.0 8.0 0.00 0.00 0.00 87 1016.0
20260903131557 78 99 3.0 8.0 0.00 0.00 0.00 87 1016.0
20260903131045 78 67 3.0 10.0 0.00 0.00 0.00 87 1016.0
20260903130545 78 81 3.0 10.0 0.00 0.00 0.00 87 1016.0
20260903130106 78 95 4.0 10.0 0.00 0.00 0.00 86 1016.0
20260903125546 78 77 4.0 10.0 0.00 0.00 0.00 87 1016.2
20260903125044 78 86 3.0 9.0 0.00 0.00 0.00 87 1016.2
20260903124610 78 111 5.0 9.0 0.00 0.00 0.00 87 1016.0
20260903124043 78 76 3.0 9.0 0.00 0.00 0.00 87 1015.9
20260903123544 78 80 4.0 9.0 0.00 0.00 0.00 87 1015.8
20260903123058 77 99 5.0 9.0 0.00 0.00 0.00 87 1015.7
20260903122547 77 75 4.0 9.0 0.00 0.00 0.00 87 1015.8
20260903122048 77 71 4.0 8.0 0.00 0.00 0.00 88 1015.8
20260903121602 77 84 4.0 7.0 0.00 0.00 0.00 88 1015.7
20260903121043 77 62 4.0 8.0 0.00 0.00 0.00 88 1015.5
20260903120544 77 75 3.0 8.0 0.00 0.00 0.00 88 1015.5
20260903120119 77 79 3.0 7.0 0.00 0.00 0.00 88 1015.4
20260903115543 77 66 3.0 6.0 0.00 0.00 0.00 88 1015.2
20260903115044 77 52 2.0 5.0 0.00 0.00 0.00 88 1015.4
20260903114605 77 75 2.0 8.0 0.00 0.00 0.00 88 1015.3
20260903114043 77 38 3.0 8.0 0.00 0.00 0.00 88 1015.1
20260903113543 77 69 2.0 6.0 0.00 0.00 0.00 88 1015.2
20260903113056 77 90 2.0 5.0 0.00 0.00 0.00 89 1015.1
20260903112544 77 69 3.0 7.0 0.00 0.00 0.00 89 1015.1
20260903112044 77 80 3.0 7.0 0.00 0.00 0.00 89 1015.1
20260903111554 77 88 2.0 7.0 0.00 0.00 0.00 89 1015.1
20260903111048 77 75 2.0 6.0 0.00 0.00 0.00 89 1015.0
20260903110546 77 76 2.0 6.0 0.00 0.00 0.00 89 1014.9
20260903110106 77 71 2.0 6.0 0.00 0.00 0.00 89 1015.0
20260903105543 77 52 2.0 6.0 0.00 0.00 0.00 89 1015.0
20260903105043 77 78 2.0 7.0 0.00 0.00 0.00 89 1015.1
20260903104609 77 55 3.0 7.0 0.00 0.00 0.00 89 1015.2
20260903104046 77 51 3.0 5.0 0.00 0.00 0.00 90 1015.0
20260903103543 77 96 2.0 6.0 0.00 0.00 0.00 90 1015.0
20260903103105 77 74 3.0 6.0 0.00 0.00 0.00 89 1014.8
20260903102545 77 61 2.0 4.0 0.00 0.00 0.00 89 1014.8
20260903102046 78 62 2.0 4.0 0.00 0.00 0.00 89 1015.0
20260903101604 78 63 1.0 4.0 0.00 0.00 0.00 89 1015.0
20260903101043 78 64 1.0 4.0 0.00 0.00 0.00 89 1014.8
20260903100543 78 65 1.0 4.0 0.00 0.00 0.00 89 1014.7
20260903100106 78 65 1.0 3.0 0.00 0.00 0.00 89 1014.6
20260903095543 78 65 1.0 3.0 0.00 0.00 0.00 89 1014.5
20260903095047 78 65 1.0 3.0 0.00 0.00 0.00 89 1014.4
20260903094602 78 65 1.0 3.0 0.00 0.00 0.00 89 1014.5
20260903094046 78 65 1.0 2.0 0.00 0.00 0.00 89 1014.5
20260903093546 78 0 0.0 2.0 0.00 0.00 0.00 89 1014.5
20260903093058 78 0 0.0 3.0 0.00 0.00 0.00 89 1014.6
20260903092546 78 65 1.0 3.0 0.00 0.00 0.00 89 1014.5
20260903092046 78 0 0.0 3.0 0.00 0.00 0.00 89 1014.6
20260903091556 79 65 0.0 3.0 0.00 0.00 0.00 89 1014.6
20260903091119 79 65 1.0 3.0 0.00 0.00 0.00 89 1014.7
20260903090545 79 65 1.0 2.0 0.00 0.00 0.00 89 1014.7
20260903090054 79 65 1.0 2.0 0.00 0.00 0.00 89 1014.6
20260903085545 79 65 0.0 2.0 0.00 0.00 0.00 89 1014.6
20260903085046 79 65 1.0 2.0 0.00 0.00 0.00 88 1014.7
20260903084601 79 65 0.0 2.0 0.00 0.00 0.00 88 1014.7
20260903084043 79 65 1.0 3.0 0.00 0.00 0.00 88 1014.8
20260903083547 79 65 1.0 3.0 0.00 0.00 0.00 88 1014.7
20260903083057 79 65 1.0 3.0 0.00 0.00 0.00 88 1014.8
20260903082546 79 65 1.0 3.0 0.00 0.00 0.00 88 1014.8
20260903082043 79 65 1.0 3.0 0.00 0.00 0.00 88 1014.7
20260903081555 79 65 1.0 3.0 0.00 0.00 0.00 88 1014.7
20260903081048 79 65 1.0 3.0 0.00 0.00 0.00 88 1014.6
20260903080543 79 65 1.0 3.0 0.00 0.00 0.00 88 1014.5
20260903080055 80 65 1.0 3.0 0.00 0.00 0.00 88 1014.6
20260903075543 80 65 2.0 3.0 0.00 0.00 0.00 88 1014.7
20260903075045 80 65 0.0 2.0 0.00 0.00 0.00 88 1014.8
20260903074632 80 65 0.0 3.0 0.00 0.00 0.00 88 1014.8
20260903074043 80 65 0.0 4.0 0.00 0.00 0.00 88 1014.9
20260903073544 80 65 1.0 4.0 0.00 0.00 0.00 87 1015.0
20260903073103 80 55 2.0 4.0 0.00 0.00 0.00 87 1014.9
20260903072545 80 55 2.0 4.0 0.00 0.00 0.00 87 1015.0
20260903072045 80 121 2.0 4.0 0.00 0.00 0.00 87 1015.1
20260903071605 80 122 2.0 4.0 0.00 0.00 0.00 87 1015.1
20260903071045 80 122 2.0 4.0 0.00 0.00 0.00 87 1015.0
20260903070546 80 134 1.0 4.0 0.00 0.00 0.00 87 1015.0
20260903070112 80 134 0.0 4.0 0.00 0.00 0.00 86 1015.2
20260903065545 81 134 1.0 3.0 0.00 0.00 0.00 86 1015.3
20260903065043 81 0 1.0 3.0 0.00 0.00 0.00 86 1015.3
20260903064555 81 134 1.0 3.0 0.00 0.00 0.00 86 1015.2
20260903064042 81 135 1.0 4.0 0.00 0.00 0.00 86 1015.3
20260903063546 81 135 2.0 4.0 0.00 0.00 0.00 87 1015.5
20260903063110 81 135 2.0 4.0 0.00 0.00 0.00 87 1015.5
20260903062543 80 215 1.0 2.0 0.00 0.00 0.00 87 1015.6
20260903062049 80 0 0.0 0.0 0.00 0.00 0.00 87 1015.7
20260903061610 80 0 0.0 2.0 0.00 0.00 0.00 87 1015.6
20260903061042 80 0 0.0 2.0 0.00 0.00 0.00 86 1015.5
20260903060543 81 0 1.0 2.0 0.00 0.00 0.00 86 1015.5
20260903060100 81 215 0.0 3.0 0.00 0.00 0.00 86 1015.5
20260903055543 81 215 1.0 3.0 0.00 0.00 0.00 87 1015.5
20260903055045 81 215 1.0 3.0 0.00 0.00 0.00 87 1015.5
20260903054601 81 215 1.0 3.0 0.00 0.00 0.00 87 1015.6
20260903054046 80 215 1.0 2.0 0.00 0.00 0.00 87 1015.7
20260903053545 80 215 0.0 2.0 0.00 0.00 0.00 87 1015.8
20260903053101 80 215 0.0 3.0 0.00 0.00 0.00 86 1015.8
20260903052548 81 214 1.0 3.0 0.00 0.00 0.00 87 1015.9
20260903052046 80 213 1.0 3.0 0.00 0.00 0.00 87 1016.0
20260903051557 81 214 1.0 2.0 0.00 0.00 0.00 86 1015.8
20260903051042 80 0 0.0 0.0 0.00 0.00 0.00 87 1015.9
20260903050542 80 0 0.0 0.0 0.00 0.00 0.00 86 1015.9
20260903050057 80 0 0.0 0.0 0.00 0.00 0.00 86 1016.0
20260903045549 80 0 0.0 0.0 0.00 0.00 0.00 86 1016.1
20260903045046 80 0 0.0 2.0 0.00 0.00 0.00 86 1016.0
20260903044602 81 0 0.0 2.0 0.00 0.00 0.00 87 1016.1
20260903044044 80 214 0.0 1.0 0.00 0.00 0.00 86 1015.8
20260903043546 80 0 0.0 2.0 0.00 0.00 0.00 87 1015.8
20260903043058 80 0 0.0 2.0 0.00 0.00 0.00 87 1015.8
20260903042545 80 213 1.0 2.0 0.00 0.00 0.00 86 1015.7
20260903042046 80 0 0.0 0.0 0.00 0.00 0.00 86 1015.7
20260903041609 80 0 0.0 1.0 0.00 0.00 0.00 86 1015.7
20260903041046 80 0 0.0 1.0 0.00 0.00 0.00 86 1015.7
20260903040551 80 0 0.0 2.0 0.00 0.00 0.00 85 1015.6
20260903040056 81 0 0.0 3.0 0.00 0.00 0.00 85 1015.7
20260903035549 81 213 1.0 3.0 0.00 0.00 0.00 85 1015.8
20260903035044 81 213 1.0 3.0 0.00 0.00 0.00 85 1015.9
20260903034600 81 0 0.0 1.0 0.00 0.00 0.00 85 1016.0
20260903034043 81 0 0.0 1.0 0.00 0.00 0.00 85 1015.9
20260903033545 81 0 0.0 2.0 0.00 0.00 0.00 85 1015.9
20260903033056 81 0 0.0 2.0 0.00 0.00 0.00 85 1015.8
20260903032546 81 213 0.0 2.0 0.00 0.00 0.00 85 1015.9
20260903032046 81 0 0.0 1.0 0.00 0.00 0.00 84 1015.7
20260903031553 81 0 0.0 2.0 0.00 0.00 0.00 84 1015.9
20260903031045 82 0 0.0 2.0 0.00 0.00 0.00 84 1015.7
20260903030546 82 213 0.0 2.0 0.00 0.00 0.00 84 1015.9
20260903030058 82 213 0.0 2.0 0.00 0.00 0.00 84 1015.9
20260903025543 82 0 0.0 2.0 0.00 0.00 0.00 83 1015.8
20260903025046 82 213 1.0 3.0 0.00 0.00 0.00 83 1015.8
20260903024556 82 0 1.0 3.0 0.00 0.00 0.00 82 1015.8
20260903024051 82 213 1.0 3.0 0.00 0.00 0.00 82 1015.8
20260903023542 82 213 1.0 2.0 0.00 0.00 0.00 82 1015.8
20260903023101 83 0 0.0 2.0 0.00 0.00 0.00 82 1015.8
20260903022546 83 0 0.0 2.0 0.00 0.00 0.00 82 1015.8
20260903022049 83 0 0.0 4.0 0.00 0.00 0.00 82 1015.9
20260903021558 83 0 1.0 4.0 0.00 0.00 0.00 81 1015.9
20260903021046 83 212 1.0 4.0 0.00 0.00 0.00 81 1015.9
20260903020545 83 0 0.0 3.0 0.00 0.00 0.00 81 1015.9
20260903020053 83 212 2.0 3.0 0.00 0.00 0.00 81 1015.7
20260903015545 83 212 1.0 3.0 0.00 0.00 0.00 81 1015.8
20260903015045 83 212 1.0 3.0 0.00 0.00 0.00 81 1015.7
20260903014622 83 212 0.0 3.0 0.00 0.00 0.00 81 1015.7
20260903014047 83 0 1.0 3.0 0.00 0.00 0.00 80 1015.7